Location: Northam
(31.6525°S, 116.6655°E)
Time: 10:11:26
(UTC+08:00)

Explorer 11/Cluster Stage 4 - All Passes

Search period start: 13 June 2021 00:00
Search period end: 23 June 2021 00:00
Orbit: 467 x 1257 km, 28.8° (Epoch: 12 June)

Date Brightness Start Highest point End Pass type
(mag) Time Alt. Az. Time Alt. Az. Time Alt. Az.
13 Jun - 01:39:43 10° WNW 01:45:22 21° NNW 01:51:07 10° NNE night (unlit)
13 Jun - 18:14:41 10° NW 18:19:04 34° NNE 18:24:26 10° E visible
13 Jun - 20:01:54 10° WNW 20:07:23 66° N 20:14:19 10° E visible
13 Jun - 21:49:57 10° W 21:56:17 65° N 22:03:58 10° ENE night (unlit)
13 Jun - 23:38:35 10° W 23:45:17 41° NNW 23:52:48 10° NE night (unlit)
14 Jun - 01:29:04 10° WNW 01:34:03 18° NNW 01:39:12 10° N night (unlit)
14 Jun - 16:19:56 10° NNE 16:20:25 10° NNE 16:20:54 10° NE daylight
14 Jun - 18:03:43 10° NW 18:07:59 37° NNE 18:13:14 10° E visible
14 Jun - 19:51:01 10° WNW 19:56:17 67° N 20:03:00 10° E visible
14 Jun - 21:39:01 10° W 21:45:07 62° N 21:52:35 10° ENE visible
14 Jun - 23:27:41 10° W 23:34:02 37° NNW 23:41:14 10° NE night (unlit)
15 Jun - 01:18:37 10° WNW 01:22:46 15° NNW 01:27:02 10° N night (unlit)
15 Jun - 16:07:49 10° N 16:09:19 12° NNE 16:10:55 10° NE daylight
15 Jun - 17:52:46 10° NW 17:56:55 40° NNE 18:02:02 10° E visible
15 Jun - 19:40:09 10° WNW 19:45:14 67° N 19:51:41 10° E visible
15 Jun - 21:28:08 10° W 21:33:59 57° N 21:41:11 10° ENE visible
15 Jun - 23:16:50 10° W 23:22:48 32° NNW 23:29:37 10° NE night (unlit)
16 Jun - 01:08:35 10° NW 01:11:29 12° NNW 01:14:29 10° N night (unlit)
16 Jun - 15:56:15 10° N 15:58:14 13° NNE 16:00:21 10° ENE daylight
16 Jun - 17:41:50 10° NW 17:45:54 43° NNE 17:50:52 10° E visible
16 Jun - 19:29:18 10° W 19:34:11 66° N 19:40:24 10° E visible
16 Jun - 21:17:15 10° W 21:22:50 53° NNW 21:29:45 10° ENE visible
16 Jun - 23:06:02 10° WNW 23:11:35 28° NNW 23:17:55 10° NNE night (unlit)
17 Jun - 15:44:53 10° N 15:47:11 15° NNE 15:49:40 10° ENE daylight
17 Jun - 17:30:56 10° WNW 17:34:53 46° NNE 17:39:42 10° E daylight
17 Jun - 19:18:27 10° W 19:23:10 65° N 19:29:06 10° E visible
17 Jun - 21:06:25 10° W 21:11:44 47° NNW 21:18:19 10° ENE visible
17 Jun - 22:55:21 10° WNW 23:00:23 24° NNW 23:06:08 10° NNE night (unlit)
18 Jun - 15:33:36 10° NNW 15:36:09 18° NNE 15:38:54 10° ENE daylight
18 Jun - 17:20:03 10° WNW 17:23:55 48° NNE 17:28:33 10° E daylight
18 Jun - 19:07:38 10° W 19:12:08 63° N 19:17:49 10° ENE visible
18 Jun - 20:55:37 10° W 21:00:38 42° NNW 21:06:50 10° NE visible
18 Jun - 22:44:47 10° WNW 22:49:13 20° NNW 22:54:13 10° NNE night (unlit)
19 Jun - 15:22:24 10° NNW 15:25:09 20° NNE 15:28:05 10° ENE daylight
19 Jun - 17:09:10 10° WNW 17:12:56 51° N 17:17:25 10° E daylight
19 Jun - 18:56:49 10° W 19:01:09 59° N 19:06:33 10° ENE visible
19 Jun - 20:44:50 10° W 20:49:33 37° NNW 20:55:21 10° NE visible
19 Jun - 22:34:24 10° WNW 22:38:04 16° NNW 22:42:09 10° NNE night (unlit)
20 Jun - 15:11:14 10° NW 15:14:10 23° NNE 15:17:14 10° ENE daylight
20 Jun - 16:58:17 10° WNW 17:02:00 53° N 17:06:19 10° E daylight
20 Jun - 18:46:00 10° W 18:50:10 55° N 18:55:17 10° ENE visible
20 Jun - 20:34:06 10° W 20:38:30 31° NNW 20:43:48 10° NE visible
20 Jun - 22:24:21 10° NW 22:26:57 13° NNW 22:29:45 10° N night (unlit)
21 Jun - 15:00:06 10° NW 15:03:11 26° NNE 15:06:23 10° ENE daylight
21 Jun - 16:47:25 10° WNW 16:51:04 55° N 16:55:13 10° E daylight
21 Jun - 18:35:12 10° W 18:39:11 50° N 18:44:02 10° ENE visible
21 Jun - 20:23:27 10° WNW 20:27:27 26° NNW 20:32:13 10° NE visible
22 Jun - 14:48:59 10° NW 14:52:15 30° NNE 14:55:31 10° ENE daylight
22 Jun - 16:36:32 10° WNW 16:40:09 56° N 16:44:10 10° E daylight
22 Jun - 18:24:24 10° W 18:28:14 45° N 18:32:47 10° ENE visible
22 Jun - 20:12:50 10° WNW 20:16:25 22° NNW 20:20:35 10° NNE visible
